Wind_Speed
23 20 20 17 12 10 11 14 17 18 19 22 22 22 23 23 25 26 26 24 20 21 21 20 17 16 16 15 13 13 14 15
7 17 19 17 12 9 12 14 15 17 19 21 22 24 23 25 26 28 26 25 26 25 22 21 21 20 17 15 15 15 14 14
14 13 10 7 5 7 9 12 14 15 18 20 22 24 25 26 25 25 27 29 29 28 27 28 24 22 20 19 18 18 15 13
10 6 2 4 5 7 8 9 12 14 17 19 22 26 30 32 32 31 31 30 34 33 32 31 29 27 25 24 23 22 18 17
7 4 4 4 4 6 8 9 13 15 17 21 24 27 31 33 35 34 32 35 32 32 31 31 29 27 25 24 23 21 19 20
6 5 3 4 8 9 9 11 13 14 18 22 28 31 34 34 35 36 36 36 35 31 30 33 31 29 26 22 18 17 20 15
4 4 8 9 7 8 11 11 9 12 18 22 28 31 35 38 39 40 39 41 40 38 32 36 34 31 31 30 28 25 21 23
7 7 7 6 7 8 7 9 15 19 26 28 33 34 36 35 35 37 39 43 40 38 31 32 33 31 32 29 25 23 25 27
1 0 2 3 2 6 12 16 22 24 26 33 38 39 33 32 34 34 35 35 29 30 30 29 26 20 24 27 26 29 32 23
13 12 10 6 10 14 17 21 27 32 39 41 33 31 33 34 32 29 27 29 31 29 30 25 30 34 30 31 23 17 18 24
9 9 3 6 12 19 27 33 37 38 33 28 29 31 31 28 23 14 18 26 26 21 19 16 23 26 16 16 17 22 27 30
11 11 13 20 26 29 33 36 32 33 29 29 30 29 29 27 20 19 18 19 16 22 22 19 17 12 13 18 24 27 30 33
13 19 24 29 31 33 33 34 31 31 32 35 29 24 22 16 13 12 13 15 18 13 13 12 13 16 19 23 28 30 33 35
20 27 30 31 35 31 35 31 28 30 33 29 26 21 15 13 13 13 14 13 10 11 12 16 18 21 27 29 30 33 33 35
25 31 34 32 33 33 31 30 28 33 34 25 14 11 11 11 11 10 10 9 7 13 16 20 24 27 29 32 32 33 36 33
27 32 35 33 33 31 32 27 32 37 31 25 19 16 15 12 9 9 10 17 16 15 22 25 26 29 30 32 34 34 34 38
35 32 34 32 31 29 26 30 34 36 29 21 21 18 16 17 15 13 12 12 13 19 24 26 28 32 32 29 30 33 38 43
39 33 32 31 31 27 32 32 31 18 14 14 15 13 12 12 7 4 8 13 19 24 26 29 32 28 29 31 35 34 37 35
35 33 31 32 29 32 32 24 10 11 9 8 7 6 7 4 6 10 17 21 24 27 30 29 30 32 32 31 34 35 33 31
Wind_Direction
240 235 223 213 216 225 264 290 301 303 301 295 296 289 281 270 273 282 288 283 280 279 267 263 259 265 266 265 273 290 304 314
185 213 204 201 214 250 294 310 317 310 304 303 296 296 292 281 266 277 271 275 278 276 270 265 260 259 263 261 269 283 291 300
106 133 162 192 245 284 311 318 317 315 317 308 298 295 292 289 285 274 273 267 270 265 264 270 260 249 250 250 256 270 271 285
116 124 163 277 296 303 292 303 307 302 305 300 295 291 288 286 287 282 273 266 264 264 262 264 258 251 245 249 254 263 259 271
130 159 199 226 265 277 281 302 319 310 308 301 293 281 280 289 288 286 279 271 268 257 260 257 250 241 241 241 240 244 259 269
165 187 211 271 288 288 301 310 307 312 315 313 310 302 297 297 294 285 278 269 263 258 251 247 240 239 235 223 228 254 260 253
242 270 270 277 293 304 303 298 304 306 303 305 303 298 298 294 291 289 283 273 260 253 241 235 234 231 235 239 244 257 244 256
227 247 252 244 269 286 288 300 304 308 297 300 303 297 295 289 286 284 285 268 253 254 234 218 220 219 231 236 244 255 266 272
331 298 185 191 316 310 312 310 299 299 299 303 304 303 299 296 296 295 287 262 233 227 223 216 224 232 249 244 256 267 273 291
57 47 15 345 329 323 316 315 313 311 308 308 306 300 301 304 303 296 279 230 212 208 231 229 253 260 274 288 291 289 296 291
30 21 44 336 325 323 321 315 316 319 318 312 310 308 307 306 302 274 239 215 205 207 224 255 298 319 303 306 305 299 293 290
32 13 350 335 325 328 325 323 324 324 322 319 316 304 302 298 281 254 230 215 226 257 296 315 314 300 305 299 293 289 289 290
354 340 336 334 332 329 326 327 323 329 328 327 312 294 280 262 248 243 249 257 267 301 325 319 315 307 296 291 292 294 293 291
335 335 333 333 331 327 325 325 324 328 325 326 307 282 262 264 265 258 257 266 285 306 316 320 310 296 296 298 296 297 295 294
329 336 333 329 329 328 327 325 323 324 333 322 276 260 258 243 227 235 256 270 293 318 315 304 299 297 297 298 298 295 295 291
327 327 331 328 332 330 325 319 318 319 320 309 277 263 233 216 224 237 260 291 307 311 299 299 295 299 301 298 299 297 292 289
325 321 328 326 321 321 316 313 317 319 316 290 273 248 235 247 269 332 347 320 298 288 295 301 302 302 302 301 297 293 292 292
319 316 317 318 316 312 315 320 327 330 316 308 294 299 332 7 353 303 283 290 298 302 303 304 306 306 304 300 299 300 300 297
320 316 315 310 310 311 316 323 334 5 351 354 341 329 316 303 313 303 300 303 305 305 308 309 306 305 306 306 305 303 300 296
Height
1518 1520 1523 1526 1527 1529 1529 1529 1529 1529 1528 1527 1526 1525 1525 1524 1523 1523 1522 1521 1521 1520 1519 1519 1518 1518 1518 1517 1516 1515 1514 1512
1514 1514 1518 1522 1525 1527 1527 1527 1527 1526 1525 1524 1523 1522 1521 1520 1519 1518 1518 1518 1517 1516 1515 1515 1514 1513 1512 1512 1512 1512 1511 1509
1516 1519 1523 1524 1524 1524 1524 1524 1524 1524 1523 1521 1519 1518 1516 1515 1514 1513 1511 1511 1512 1512 1511 1510 1509 1509 1508 1508 1507 1507 1507 1505
1518 1520 1522 1523 1523 1523 1522 1522 1521 1520 1519 1517 1515 1513 1510 1508 1507 1505 1504 1504 1503 1503 1503 1503 1502 1502 1502 1503 1502 1501 1500 1499
1520 1521 1521 1522 1522 1522 1520 1518 1516 1515 1514 1512 1509 1507 1504 1501 1499 1497 1497 1496 1494 1494 1495 1495 1495 1495 1496 1495 1494 1494 1494 1493
1520 1521 1520 1520 1519 1518 1516 1515 1513 1512 1511 1508 1505 1501 1498 1495 1493 1491 1489 1488 1486 1485 1486 1486 1487 1487 1488 1488 1488 1487 1486 1486
1521 1519 1518 1517 1515 1515 1513 1511 1511 1510 1509 1506 1501 1497 1492 1488 1485 1482 1481 1479 1478 1478 1477 1478 1478 1477 1478 1478 1478 1478 1480 1479
1517 1517 1515 1514 1513 1512 1510 1510 1510 1508 1505 1501 1496 1490 1486 1481 1478 1475 1474 1471 1469 1470 1470 1470 1468 1468 1467 1468 1469 1471 1472 1472
1517 1515 1514 1513 1511 1510 1510 1508 1505 1501 1496 1492 1488 1482 1478 1475 1472 1468 1464 1463 1462 1462 1462 1463 1462 1461 1461 1462 1461 1464 1464 1465
1516 1515 1515 1513 1512 1510 1507 1503 1499 1493 1487 1481 1476 1472 1470 1467 1462 1459 1456 1455 1453 1454 1455 1456 1455 1457 1459 1459 1460 1460 1460 1460
1514 1513 1512 1511 1508 1506 1502 1498 1491 1484 1479 1475 1471 1467 1464 1462 1457 1454 1453 1450 1450 1451 1450 1452 1453 1453 1455 1455 1455 1455 1453 1452
1514 1513 1511 1508 1505 1500 1495 1489 1483 1478 1473 1469 1464 1460 1456 1454 1453 1451 1450 1450 1449 1450 1449 1451 1451 1451 1451 1450 1450 1449 1447 1445
1512 1510 1506 1503 1498 1492 1487 1482 1477 1473 1467 1462 1458 1455 1452 1450 1449 1448 1449 1449 1448 1448 1447 1447 1447 1446 1446 1445 1443 1441 1439 1437
1510 1506 1499 1495 1489 1485 1480 1475 1470 1467 1462 1458 1454 1451 1448 1447 1446 1445 1444 1444 1445 1445 1444 1443 1442 1441 1439 1438 1435 1433 1430 1428
1505 1500 1494 1491 1485 1481 1477 1471 1468 1463 1459 1454 1452 1450 1447 1444 1443 1442 1442 1441 1440 1441 1440 1439 1437 1435 1433 1429 1427 1424 1421 1419
1498 1495 1490 1485 1480 1476 1472 1467 1462 1458 1455 1452 1450 1445 1444 1442 1440 1439 1439 1438 1437 1437 1435 1433 1431 1429 1425 1421 1419 1416 1413 1409
1494 1490 1486 1481 1476 1472 1467 1463 1457 1452 1448 1445 1442 1439 1439 1439 1437 1435 1436 1435 1433 1432 1430 1427 1424 1421 1418 1414 1411 1407 1403 1399
1490 1486 1483 1478 1472 1467 1462 1456 1450 1446 1443 1442 1439 1437 1436 1434 1434 1433 1432 1431 1429 1427 1424 1420 1417 1413 1410 1407 1403 1398 1392 1387
1486 1482 1479 1474 1469 1464 1458 1452 1447 1444 1443 1441 1439 1437 1436 1434 1433 1432 1429 1427 1424 1421 1417 1414 1409 1406 1403 1398 1394 1388 1383 1379